Location: Bucharest
(44.4268°N, 26.1025°E)
Time: 23:34:27
(UTC+03:00)

CAS-6 - Visible Passes

Search period start: 26 June 2022 00:00
Search period end: 06 July 2022 00:00
Orbit: 613 x 635 km, 97.9° (Epoch: 26 June)

Date Brightness Start Highest point End Pass type
(mag) Time Alt. Az. Time Alt. Az. Time Alt. Az.
26 Jun ? 00:24:23 22° WSW 00:25:43 25° W 00:29:21 10° NW visible
26 Jun ? 23:05:47 27° SE 23:07:50 50° ENE 23:12:04 10° N visible
27 Jun ? 00:43:02 15° WSW 00:44:18 16° W 00:47:06 10° NW visible
27 Jun ? 23:24:26 35° SSE 23:26:14 78° ENE 23:30:36 10° N visible
28 Jun ? 01:02:09 10° W 01:02:56 10° W 01:03:44 10° WNW visible
28 Jun ? 22:06:48 10° E 22:09:01 14° ENE 22:11:13 10° NNE visible
28 Jun ? 23:43:04 37° S 23:44:40 67° WSW 23:49:01 10° NNW visible
29 Jun ? 22:24:29 12° ESE 22:27:14 20° ENE 22:30:25 10° NNE visible
30 Jun ? 00:01:43 32° SW 00:03:08 42° W 00:07:17 10° NNW visible
30 Jun ? 22:43:07 18° ESE 22:45:30 30° ENE 22:49:18 10° N visible
01 Jul ? 00:20:22 23° SW 00:21:40 27° W 00:25:23 10° NW visible
01 Jul ? 23:01:46 26° SE 23:03:50 45° ENE 23:07:59 10° N visible
02 Jul ? 00:39:01 16° WSW 00:40:14 18° W 00:43:13 10° NW visible
02 Jul ? 23:20:25 35° SSE 23:22:12 71° ENE 23:26:32 10° N visible
03 Jul ? 00:57:40 11° WSW 00:58:51 12° W 01:00:21 10° WNW visible
03 Jul ? 22:03:09 10° E 22:05:01 13° ENE 22:06:53 10° NE visible
03 Jul ? 23:39:04 39° S 23:40:36 74° WSW 23:44:57 10° NNW visible
04 Jul ? 22:20:28 11° ESE 22:23:13 19° ENE 22:26:13 10° NNE visible
04 Jul ? 23:57:43 34° SSW 23:59:04 46° W 00:03:16 10° NNW visible
05 Jul ? 22:39:07 17° ESE 22:41:29 27° ENE 22:45:08 10° N visible
